Tracking 19908 objects as of 19-Oct-2019
HD Live streaming from Space Station
objects crossing your sky now

LEASAT 1

Track LEASAT 1 now!
LEASAT 1 is classified as:


NORAD ID: 15384
Int'l Code: 1984-113C
Perigee: 36,159.6 km
Apogee: 36,411.1 km
Inclination: 13.6 °
Period: 1,461.3 minutes
Semi major axis: 42656 km
RCS: 16.1907 m2 (large)
Launch date: November 8, 1984
Source: United States (US)
Launch site: AIR FORCE EASTERN TEST RANGE (AFETR)
aabbcc
Your satellite tracking list
Your tracking list is empty




NASA's NSSDC Master Catalog

Two Line Element Set (TLE):
1 15384U 84113C   19291.78915014 -.00000010 +00000-0 +00000-0 0  9997
2 15384 013.5926 353.8571 0029484 245.6468 119.2373 00.98543315099948
Source of the keplerian elements: AFSPC